Philip, SD

7:40 AM MST on November 20, 2017 (GMT -0700)
Philip

Weather History for KPHP - March, 2014

Change the Weather History Date:

Tuesday, March 11, 2014

  Actual Average Record
Temperature  
Mean Temperature 39 °F 33 °F  
Max Temperature 45 °F 46 °F 77 °F (2015)
Min Temperature 33 °F 20 °F -20 °F (1950)
Degree Days  
Heating Degree Days 26 32  
Month to date heating degree days 423 374  
Since 1 July heating degree days 6026 5739  
Cooling Degree Days 0 0  
Month to date cooling degree days 0 0  
Year to date cooling degree days 0 0  
Moisture  
Dew Point 30 °F    
Average Humidity 73    
Maximum Humidity 89    
Minimum Humidity 57    
Precipitation  
Precipitation 0.07 in 0.05 in 0.47 in (1977)
Month to date precipitation 0.31 0.45  
Year to date precipitation 0.79 1.23  
Sea Level Pressure  
Sea Level Pressure 30.02 in    
Wind  
Wind Speed 15 mph (North)    
Max Wind Speed 26 mph    
Max Gust Speed 36 mph    
Visibility 8 miles    
Events Snow    
T = Trace of Precipitation, MM = Missing Value Source: NWS Daily Summary

Daily Weather History Graph

Daily Weather History Graph

Search for Another Location

Airport or City:

Trip Planner

Search our weather history database for the weather conditions in past years. The results will help you decide how hot, cold, wet, or windy it might be!

Date:

Astronomy

Mar. 11, 2014 Rise Set
Actual Time 7:05 AM MDT 6:47 PM MDT
Civil Twilight 6:37 AM MDT 7:16 PM MDT
Nautical Twilight 6:03 AM MDT 7:49 PM MDT
Astronomical Twilight 5:29 AM MDT 8:23 PM MDT
Moon 2:18 PM MDT (3/11) 4:08 AM MDT (3/11)
Length of Visible Light 12h 39m
Length of Day
11h 41m
Waxing Gibbous, 78% of the Moon is Illuminated
Mar 11
Waxing Gibbous
Mar 16
Full
Mar 23
Last Quarter
Mar 30
New
Apr 7
First Quarter

Hourly Weather History & Observations

Time (MDT) Temp. Windchill Dew Point Humidity Pressure Visibility Wind Dir Wind Speed Gust Speed Precip Events Conditions
12:26 AM 37.4 °F 28.2 °F 32.0 °F 81% 29.73 in 10.0 mi ENE 16.1 mph 20.7 mph N/A   Overcast
12:55 AM 37.9 °F 28.5 °F 32.0 °F 79% 29.74 in 10.0 mi NE 17.3 mph - N/A   Overcast
1:06 AM 37.4 °F 28.5 °F 32.0 °F 81% 29.74 in 10.0 mi NNE 15.0 mph - N/A   Overcast
1:52 AM 37.4 °F 27.8 °F 32.0 °F 81% 29.78 in 10.0 mi NNE 17.3 mph 23.0 mph N/A   Overcast
1:55 AM 37.0 °F 28.5 °F 32.0 °F 82% 29.78 in 10.0 mi NNE 13.8 mph 23.0 mph N/A   Overcast
2:55 AM 35.1 °F 23.8 °F 30.9 °F 85% 29.78 in 10.0 mi NE 20.7 mph 26.5 mph N/A   Overcast
3:55 AM 34.0 °F 24.6 °F 30.9 °F 89% 29.82 in 10.0 mi NE 13.8 mph - N/A   Overcast
4:55 AM 34.0 °F 25.0 °F 30.9 °F 89% 29.86 in 4.0 mi North 12.7 mph - 0.01 in Snow Light Snow
5:17 AM 33.8 °F 24.8 °F 30.2 °F 87% 29.85 in 4.0 mi NNE 12.7 mph - 0.02 in Snow Light Snow
5:28 AM 33.8 °F 25.8 °F 30.2 °F 87% 29.86 in 2.0 mi North 10.4 mph - 0.02 in Snow Light Snow
5:36 AM 33.8 °F 24.8 °F 30.2 °F 87% 29.87 in 1.2 mi North 12.7 mph - 0.03 in Snow Light Snow
5:55 AM 33.1 °F 24.4 °F 30.0 °F 89% 29.89 in 1.5 mi North 11.5 mph - 0.05 in Snow Light Snow
6:09 AM 33.8 °F 26.4 °F 30.2 °F 87% 29.88 in 2.5 mi North 9.2 mph - 0.01 in Snow Light Snow
6:12 AM 33.8 °F 25.8 °F 30.2 °F 87% 29.88 in 3.0 mi North 10.4 mph - 0.01 in Snow Light Snow
6:34 AM 33.8 °F 25.3 °F 30.2 °F 87% 29.90 in 9.0 mi North 11.5 mph - 0.01 in Snow Light Snow
6:55 AM 33.1 °F 23.9 °F 30.9 °F 92% 29.93 in 9.0 mi North 12.7 mph - 0.01 in Snow Light Snow
7:55 AM 34.0 °F 24.6 °F 30.9 °F 89% 29.97 in 10.0 mi North 13.8 mph - 0.00 in   Overcast
8:55 AM 35.1 °F 25.9 °F 30.9 °F 85% 30.00 in 10.0 mi North 13.8 mph - N/A   Overcast
9:55 AM 36.0 °F 26.0 °F 30.9 °F 82% 30.05 in 10.0 mi NNW 17.3 mph - N/A   Overcast
10:55 AM 39.0 °F 29.6 °F 32.0 °F 76% 30.09 in 10.0 mi North 18.4 mph 25.3 mph N/A   Mostly Cloudy
11:55 AM 42.1 °F 33.3 °F 30.0 °F 62% 30.12 in 10.0 mi North 19.6 mph 26.5 mph N/A   Partly Cloudy
12:55 PM 44.1 °F 35.0 °F 30.9 °F 60% 30.13 in 10.0 mi North 24.2 mph 29.9 mph N/A   Partly Cloudy
1:39 PM 42.8 °F 33.1 °F 30.2 °F 61% 30.11 in 10.0 mi NNW 25.3 mph 31.1 mph N/A   Mostly Cloudy
1:55 PM 43.0 °F 34.0 °F 30.0 °F 60% 30.15 in 10.0 mi North 21.9 mph 29.9 mph N/A   Mostly Cloudy
2:15 PM 42.8 °F 33.8 °F 30.2 °F 61% 30.12 in 10.0 mi NNW 21.9 mph 29.9 mph N/A   Scattered Clouds
2:55 PM 44.1 °F 35.7 °F 30.0 °F 58% 30.17 in 10.0 mi NNW 20.7 mph 35.7 mph N/A   Scattered Clouds
3:02 PM 44.6 °F 35.7 °F 30.2 °F 57% 30.13 in 10.0 mi NNW 24.2 mph 28.8 mph N/A   Mostly Cloudy
3:14 PM 42.8 °F 34.0 °F 28.4 °F 57% 30.14 in 10.0 mi NNW 20.7 mph 28.8 mph N/A   Mostly Cloudy
3:55 PM 43.0 °F 35.1 °F 30.0 °F 60% 30.18 in 10.0 mi NNW 17.3 mph - N/A   Mostly Cloudy
4:55 PM 43.0 °F 35.4 °F 28.9 °F 58% 30.20 in 10.0 mi NNW 16.1 mph 25.3 mph N/A   Mostly Cloudy
5:55 PM 42.1 °F 34.9 °F 28.9 °F 60% 30.22 in 10.0 mi NNW 13.8 mph - N/A   Mostly Cloudy
6:55 PM 37.9 °F 31.5 °F 28.0 °F 68% 30.25 in 10.0 mi NW 9.2 mph - 0.00 in   Clear
7:55 PM 36.0 °F 28.5 °F 28.9 °F 76% 30.26 in 10.0 mi NW 10.4 mph - N/A   Mostly Cloudy
8:55 PM 36.0 °F 28.0 °F 28.9 °F 76% 30.26 in 10.0 mi WNW 11.5 mph - N/A   Overcast
9:55 PM 36.0 °F 28.5 °F 30.0 °F 79% 30.27 in 10.0 mi WNW 10.4 mph - 0.00 in   Overcast
10:55 PM 36.0 °F 28.0 °F 28.9 °F 76% 30.25 in 10.0 mi WNW 11.5 mph - N/A   Overcast
11:55 PM 36.0 °F 26.7 °F 28.9 °F 76% 30.25 in 10.0 mi WNW 15.0 mph - N/A   Overcast